This is the latest recevied weather packets stored in our database for station/object KE8DDT-7. If no packets are shown the sender has not sent any weather packets the latest 10 day(s).
| Time | Temp. | Humidity | Pressure | Rain* | Wind** | Luminosity | Snow |
|---|---|---|---|---|---|---|---|
| 1778009416 | 11.11° C | 76% | 999.8 hPa | 0 mm | - | 211 W/m² | - |
| 1778009116 | 10.56° C | 77% | 999.8 hPa | 0 mm | - | 193 W/m² | - |
| 1778008516 | 10.56° C | 77% | 999.8 hPa | 0 mm | - | 207 W/m² | - |
| 1778008217 | 10.56° C | 78% | 999.8 hPa | 0 mm | - | 199 W/m² | - |
| 1778007916 | 10.56° C | 78% | 999.8 hPa | 0 mm | - | 179 W/m² | - |
| 1778007339 | 10.56° C | 78% | 999.8 hPa | 0 mm | - | 186 W/m² | - |
| 1778007039 | 10.56° C | 79% | 999.9 hPa | 0 mm | - | 162 W/m² | - |
| 1778006739 | 10.56° C | 79% | 999.9 hPa | 0 mm | - | 149 W/m² | - |
| 1778006139 | 10.56° C | 79% | 999.7 hPa | 0 mm | - | 128 W/m² | - |
| 1778005540 | 10.56° C | 79% | 999.7 hPa | 0 mm | - | 130 W/m² | - |
| 1778005240 | 10.56° C | 79% | 999.7 hPa | 0 mm | - | 132 W/m² | - |
| 1778004939 | 11.11° C | 80% | 999.6 hPa | 0 mm | - | 290 W/m² | - |
| 1778004640 | 11.11° C | 80% | 999.5 hPa | 0 mm | - | 359 W/m² | - |
| 1778004339 | 11.11° C | 80% | 999.3 hPa | 0 mm | - | 288 W/m² | - |
| 1778004039 | 11.11° C | 80% | 999.3 hPa | 0 mm | - | 171 W/m² | - |
| 1778003741 | 11.11° C | 80% | 999.2 hPa | 0 mm | - | 262 W/m² | - |
| 1778003139 | 10.56° C | 81% | 999.2 hPa | 0 mm | - | 450 W/m² | - |
| 1778002841 | 10.56° C | 82% | 999.2 hPa | 0 mm | - | 798 W/m² | - |
| 1778002539 | 10.56° C | 84% | 999.2 hPa | 0 mm | - | 826 W/m² | - |
| 1778002240 | 10° C | 84% | 999.1 hPa | 0 mm | - | 638 W/m² | - |
| 1778001939 | 10° C | 85% | 999.1 hPa | 0 mm | - | 779 W/m² | - |
| 1778001640 | 9.44° C | 84% | 999.1 hPa | 0.25 mm | - | 392 W/m² | - |
| 1778001339 | 9.44° C | 84% | 999.1 hPa | 0.25 mm | - | 237 W/m² | - |
| 1778001040 | 9.44° C | 84% | 998.9 hPa | 0.51 mm | - | 188 W/m² | - |
| 1778000739 | 9.44° C | 84% | 999 hPa | 0.76 mm | - | 176 W/m² | - |
* Rain latest hour (hover to see other rain measurements)
** Current wind speed in m/s (hover to see current wind gust speed)